MULLICA TWP. - NJ SAFETYNET current weather conditions

sailwx.info

Wind from 326 at 8 knots gusting 10

Air temperature 26.7° C

Last reported at 2020-May-30 23:05 UTC.
Time now 2020-May-31 00:14 UTC

Location: N 39°33' W 074°44'.
View on Google Maps.

See reports from other nearby stations

  
Tides and Currents Weather Stations Pressure Air Temp Water Temp Dewpoint Dewpoint Depression Visibility Wind Speed Wind Dir Waves Ship Positions
date/time (UTC)wind fromknots sea level pressurealtimeterstation pressurevisibilityair tempwater tempwave heightnotes
2020-May-30 23:05 326 8 gusting 10 26.7
2020-May-30 23:00 152 5 gusting 10 26.7
2020-May-30 22:55 135 5 gusting 9 26.7
2020-May-30 22:50 258 1 gusting 10 26.7
2020-May-30 22:45 123 4 gusting 11 26.7
2020-May-30 22:40 306 8 gusting 11 26.7
2020-May-30 22:35 332 5 gusting 12 26.7
2020-May-30 22:30 332 8 gusting 13 26.7
2020-May-30 22:25 296 11 gusting 13 26.7
2020-May-30 22:20 295 6 gusting 10 26.7
2020-May-30 22:15 26.7
2020-May-30 22:10 321 8 gusting 11 27.2
2020-May-30 22:05 311 5 gusting 12 26.7
2020-May-30 22:00 321 7 gusting 17 26.7
2020-May-30 21:55 302 7 gusting 13 26.7
2020-May-30 21:50 344 9 gusting 15 26.7
2020-May-30 21:45 344 11 gusting 14 26.7
2020-May-30 21:40 356 9 gusting 16 26.7
2020-May-30 21:35 281 7 gusting 12 26.7
2020-May-30 21:30 311 11 gusting 12 27.2
2020-May-30 21:25 325 6 gusting 10 27.8
2020-May-30 21:20 328 6 gusting 14 26.7
2020-May-30 21:15 352 9 gusting 12 27.2
2020-May-30 21:10 312 7 gusting 16 27.2
2020-May-30 21:05 278 6 gusting 11 26.7
2020-May-30 21:00 009 10 gusting 15 26.7
2020-May-30 20:55 016 6 gusting 13 26.7
2020-May-30 20:50 027 9 gusting 15 26.7
2020-May-30 20:45 014 12 gusting 13 26.7
2020-May-30 20:40 338 6 gusting 13 26.7
2020-May-30 20:35 328 8 gusting 13 26.7
2020-May-30 20:30 26.7
2020-May-30 20:25 334 1 gusting 13 26.7
2020-May-30 20:20 344 6 gusting 13 26.7
2020-May-30 20:15 348 11 gusting 12 26.7
2020-May-30 20:10 315 6 gusting 13 26.7
2020-May-30 20:05 003 6 gusting 11 26.7
2020-May-30 20:00 339 6 gusting 11 26.7
2020-May-30 19:55 332 2 gusting 6 26.7
2020-May-30 19:50 288 5 gusting 13 26.1
2020-May-30 19:45 342 13 gusting 14 26.7
2020-May-30 19:40 26.7
2020-May-30 19:35 016 10 gusting 13 26.7
2020-May-30 19:30 26.7
2020-May-30 19:25 334 7 gusting 9 27.2
2020-May-30 19:20 332 6 gusting 10 26.7
2020-May-30 19:15 354 9 gusting 13 26.1
2020-May-30 19:10 027 8 gusting 13 26.7
2020-May-30 19:05 26.1
2020-May-30 19:00 011 6 gusting 11 25.6
2020-May-30 18:55 019 6 gusting 15 26.1
2020-May-30 18:50 319 9 gusting 13 27.2
2020-May-30 18:45 225 26.1
2020-May-30 18:40 014 8 gusting 12 26.1
2020-May-30 18:35 312 8 gusting 15 26.1
2020-May-30 18:30 030 9 gusting 14 26.1
2020-May-30 18:25 346 8 gusting 15 26.1
2020-May-30 18:20 033 7 gusting 10 26.1
2020-May-30 18:15 034 7 gusting 14 25.6
2020-May-30 18:10 027 9 gusting 18 25.6
2020-May-30 18:05 001 10 gusting 13 26.7
2020-May-30 18:00 335 2 gusting 9 26.1
2020-May-30 17:55 249 4 gusting 13 25.6
2020-May-30 17:50 26.1
2020-May-30 17:45 328 10 gusting 11 26.1
2020-May-30 17:40 338 6 gusting 14 26.1
2020-May-30 17:35 011 6 gusting 10 26.1
2020-May-30 17:30 034 4 gusting 13 26.1
2020-May-30 17:25 354 6 gusting 11 25.6
2020-May-30 17:20 328 6 gusting 13 25.6
2020-May-30 17:15 019 12 gusting 13 25.6
2020-May-30 17:10 331 7 gusting 12 25.6
2020-May-30 17:05 319 8 gusting 14 25.0
2020-May-30 17:00 312 5 gusting 10 25.6
2020-May-30 16:55 25.6
2020-May-30 16:50 017 8 gusting 14 25.6
2020-May-30 16:45 160 2 gusting 12 25.6
2020-May-30 16:40 301 4 gusting 12 25.0
2020-May-30 16:35 332 4 gusting 11 25.6
2020-May-30 16:30 316 6 gusting 12 25.0
2020-May-30 16:25 305 6 gusting 12 24.4
2020-May-30 16:20 326 8 gusting 13 25.6
2020-May-30 16:15 322 9 gusting 10 24.4
2020-May-30 16:10 321 5 gusting 13 24.4
2020-May-30 16:05 346 5 gusting 12 25.6
2020-May-30 16:00 004 6 gusting 10 25.0
2020-May-30 15:55 352 5 gusting 12 25.6
2020-May-30 15:50 302 5 gusting 13 24.4
2020-May-30 15:45 338 2 gusting 13 24.4
2020-May-30 15:40 355 9 gusting 15 24.4
2020-May-30 15:35 352 8 gusting 12 24.4
2020-May-30 15:30 319 6 gusting 11 24.4
2020-May-30 15:25 325 10 gusting 10 23.9
2020-May-30 15:20 295 6 gusting 13 24.4
2020-May-30 15:15 312 9 gusting 10 23.9
2020-May-30 15:10 313 7 gusting 9 23.9
2020-May-30 15:05 276 4 gusting 8 23.9
2020-May-30 15:00 342 7 gusting 11 23.3
2020-May-30 14:55 23.9
2020-May-30 14:50 359 4 gusting 11 23.3
2020-May-30 14:45 341 11 gusting 13 23.3
2020-May-30 14:40 332 10 gusting 12 23.3
2020-May-30 14:35 23.3
2020-May-30 14:30 351 10 gusting 13 22.8
2020-May-30 14:25 336 6 gusting 11 23.3
2020-May-30 14:20 331 6 gusting 13 22.8
2020-May-30 14:15 339 6 gusting 12 23.3
2020-May-30 14:10 345 10 gusting 13 23.3
2020-May-30 14:05 288 7 gusting 13 23.3
2020-May-30 14:00 321 8 gusting 13 23.3
2020-May-30 13:55 23.3
2020-May-30 13:50 22.8
2020-May-30 13:45 22.2
2020-May-30 13:40 22.8
2020-May-30 13:35 335 10 gusting 13 22.8
2020-May-30 13:30 019 12 gusting 13 22.8
2020-May-30 13:25 348 11 gusting 14 22.8
2020-May-30 13:20 322 9 gusting 13 22.2
2020-May-30 13:15 291 6 gusting 15 22.2
2020-May-30 13:10 322 10 gusting 16 22.2
2020-May-30 13:05 316 13 gusting 15 22.2
2020-May-30 13:00 348 11 gusting 13 22.2
2020-May-30 12:55 013 9 gusting 13 22.2
2020-May-30 12:50 22.2
2020-May-30 12:45 351 10 gusting 13 22.2
2020-May-30 12:40 22.2
2020-May-30 12:35 309 6 gusting 9 22.8
2020-May-30 12:30 359 6 gusting 13 22.2
2020-May-30 12:25 335 6 gusting 12 22.2
2020-May-30 12:20 335 9 gusting 10 22.2
2020-May-30 12:15 358 6 gusting 11 21.7
2020-May-30 12:10 342 9 gusting 11 21.7
2020-May-30 12:05 348 9 gusting 9 21.7
2020-May-30 12:00 003 8 gusting 10 21.7
2020-May-30 11:55 312 6 gusting 10 21.7
2020-May-30 11:50 358 7 gusting 12 21.7
2020-May-30 11:45 319 6 gusting 12 21.7
2020-May-30 11:40 279 5 gusting 8 21.7
2020-May-30 11:35 326 3 gusting 8 21.1
2020-May-30 11:30 344 4 gusting 7 21.1
2020-May-30 11:25 315 5 gusting 6 21.1
2020-May-30 11:20 336 5 gusting 7 20.6
2020-May-30 11:15 311 6 gusting 7 20.6
2020-May-30 11:10 346 5 gusting 6 20.6
2020-May-30 11:05 213 20.6
2020-May-30 11:00 311 6 gusting 7 20.6
2020-May-30 10:55 311 6 gusting 8 20.6
2020-May-30 10:50 325 6 gusting 10 20.6
2020-May-30 10:45 312 7 gusting 8 20.6
2020-May-30 10:40 331 7 gusting 8 20.6
2020-May-30 10:35 321 5 gusting 8 20.6
2020-May-30 10:30 318 5 gusting 11 20.6
2020-May-30 10:25 326 6 gusting 12 20.6
2020-May-30 10:20 352 4 gusting 9 20.6
2020-May-30 10:10 273 20.6
2020-May-30 10:05 273 20.6
2020-May-30 10:00 273 20.6
2020-May-30 09:55 273 20.6
2020-May-30 09:50 268 20.6
2020-May-30 09:45 296 20.6
2020-May-30 09:40 275 2 gusting 4 20.6
2020-May-30 09:35 243 20.6
2020-May-30 09:30 243 20.6
2020-May-30 09:25 243 20.6
2020-May-30 09:20 243 20.6
2020-May-30 09:15 218 20.6
2020-May-30 09:10 299 1 gusting 6 20.6
2020-May-30 09:05 272 21.1
2020-May-30 09:00 286 3 gusting 6 21.1
2020-May-30 08:55 261 21.1
2020-May-30 08:50 265 4 gusting 5 21.1
2020-May-30 08:45 233 21.1
2020-May-30 08:40 245 21.1
2020-May-30 08:35 216 21.1
2020-May-30 08:30 216 21.1
2020-May-30 08:25 265 5 gusting 4 21.1
2020-May-30 08:20 238 21.1
2020-May-30 08:15 238 21.7
2020-May-30 08:10 265 1 gusting 6 21.7
2020-May-30 08:05 249 6 gusting 6 21.7
2020-May-30 08:00 282 1 gusting 6 21.7
2020-May-30 07:55 269 6 gusting 6 21.7
2020-May-30 07:50 240 2 gusting 5 21.7
2020-May-30 07:45 263 4 gusting 4 21.7
2020-May-30 07:40 212 21.7
2020-May-30 07:35 293 1 gusting 6 21.7
2020-May-30 07:30 230 3 gusting 6 21.7
2020-May-30 07:25 213 21.7
2020-May-30 07:20 188 21.7
2020-May-30 07:15 218 1 gusting 6 21.7
2020-May-30 07:10 203 21.7
2020-May-30 07:05 152 21.7
2020-May-30 07:00 193 21.7
2020-May-30 06:55 196 1 gusting 5 21.1
2020-May-30 06:50 166 21.1
2020-May-30 06:45 142 21.1
2020-May-30 06:40 195 21.1
2020-May-30 06:35 190 21.1
2020-May-30 06:30 186 20.6
2020-May-30 06:25 216 1 gusting 5 20.6
2020-May-30 06:20 215 1 gusting 5 20.6
2020-May-30 06:15 225 1 gusting 6 20.6
2020-May-30 06:10 183 2 gusting 7 20.6
2020-May-30 06:05 137 20.6
2020-May-30 06:00 215 20.6
2020-May-30 05:55 157 20.6
2020-May-30 05:50 162 4 gusting 5 20.6
2020-May-30 05:45 146 2 gusting 6 20.6
2020-May-30 05:40 162 1 gusting 6 20.6
2020-May-30 05:35 199 1 gusting 5 20.6
2020-May-30 05:30 162 1 gusting 5 20.6
2020-May-30 05:25 177 3 gusting 5 20.0
2020-May-30 05:20 160 1 gusting 6 20.0
2020-May-30 05:15 205 4 gusting 5 20.0
2020-May-30 05:10 209 1 gusting 6 20.0
2020-May-30 05:05 216 6 gusting 6 20.0
2020-May-30 05:00 190 4 gusting 6 20.0
2020-May-30 04:55 155 20.0
2020-May-30 04:50 188 4 gusting 6 20.0
2020-May-30 04:45 190 1 gusting 6 20.0
2020-May-30 04:40 188 1 gusting 6 20.0
2020-May-30 04:35 213 5 gusting 6 20.0
2020-May-30 04:30 189 6 gusting 6 20.0
2020-May-30 04:25 185 1 gusting 6 20.0
2020-May-30 04:20 149 1 gusting 6 20.0
2020-May-30 04:15 196 4 gusting 6 20.0
2020-May-30 04:10 170 4 gusting 6 20.0
2020-May-30 04:05 167 2 gusting 6 20.0
2020-May-30 04:00 190 5 gusting 7 20.0
2020-May-30 03:55 165 5 gusting 7 20.0
2020-May-30 03:50 213 4 gusting 7 20.0
2020-May-30 03:45 198 6 gusting 8 20.0
2020-May-30 03:40 199 1 gusting 7 20.0
2020-May-30 03:35 182 4 gusting 7 20.0
2020-May-30 03:30 155 4 gusting 8 20.0
2020-May-30 03:25 180 5 gusting 6 20.0
2020-May-30 03:20 192 20.0
2020-May-30 03:15 175 1 gusting 6 20.6
2020-May-30 03:10 182 6 gusting 7 20.0
2020-May-30 03:05 180 4 gusting 6 20.0
2020-May-30 03:00 173 5 gusting 6 20.6
2020-May-30 02:55 169 20.6
2020-May-30 02:50 180 6 gusting 8 20.6
2020-May-30 02:45 190 6 gusting 8 20.6
2020-May-30 02:40 127 2 gusting 7 20.6
2020-May-30 02:35 198 5 gusting 7 20.6
2020-May-30 02:30 210 1 gusting 8 20.6
2020-May-30 02:25 198 6 gusting 7 20.6
2020-May-30 02:20 155 5 gusting 6 20.6
2020-May-30 02:15 200 5 gusting 7 20.6
2020-May-30 02:10 157 1 gusting 8 20.6
2020-May-30 02:05 182 4 gusting 6 20.6
2020-May-30 02:00 163 6 gusting 6 20.6
2020-May-30 01:55 190 5 gusting 7 21.1
2020-May-30 01:50 182 6 gusting 11 21.1
2020-May-30 01:45 160 7 gusting 8 21.1
2020-May-30 01:40 193 6 gusting 7 21.1
2020-May-30 01:35 156 7 gusting 7 21.1
2020-May-30 01:30 196 2 gusting 7 21.1
2020-May-30 01:25 162 5 gusting 7 21.7
2020-May-30 01:20 177 5 gusting 7 21.7
2020-May-30 01:15 182 5 gusting 7 21.7
2020-May-30 01:10 116 2 gusting 6 21.7
2020-May-30 01:05 172 4 gusting 5 21.7
2020-May-30 01:00 140 2 gusting 5 21.7
2020-May-30 00:55 167 4 gusting 6 22.2
2020-May-30 00:50 143 22.2
2020-May-30 00:45 140 1 gusting 6 22.2
2020-May-30 00:40 103 22.2
2020-May-30 00:35 175 1 gusting 5 22.2
2020-May-30 00:30 142 2 gusting 5 22.2
2020-May-30 00:25 182 4 gusting 6 22.8
2020-May-30 00:20 142 2 gusting 6 22.8
2020-May-30 00:15 152 1 gusting 6 22.8
2020-May-30 00:10 142 1 gusting 6 22.8
2020-May-30 00:05 126 2 gusting 6 22.8
2020-May-30 00:00 177 4 gusting 7 22.8
2020-May-29 23:55 200 7 gusting 7 23.3
2020-May-29 23:50 143 1 gusting 6 23.3
2020-May-29 23:45 202 4 gusting 7 23.3
2020-May-29 23:40 188 4 gusting 8 23.9
2020-May-29 23:35 172 4 gusting 6 23.9
2020-May-29 23:30 188 6 gusting 9 23.9
2020-May-29 23:25 175 7 gusting 12 23.9
2020-May-29 23:20 159 4 gusting 10 24.4
2020-May-29 23:15 192 5 gusting 8 24.4
2020-May-29 23:10 210 3 gusting 8 24.4
2020-May-29 23:05 160 1 gusting 7 25.0
2020-May-29 23:00 149 5 gusting 7 25.0
2020-May-29 22:55 166 6 gusting 10 25.0
2020-May-29 22:50 175 6 gusting 9 25.0
2020-May-29 22:45 208 4 gusting 10 25.6
2020-May-29 22:40 163 3 gusting 7 25.0
2020-May-29 22:35 166 5 gusting 8 25.6
2020-May-29 22:30 179 1 gusting 6 25.6
2020-May-29 22:25 183 1 gusting 6 25.6
2020-May-29 22:20 188 4 gusting 8 25.6
2020-May-29 22:15 196 4 gusting 8 25.6
2020-May-29 22:10 155 6 gusting 7 25.6
2020-May-29 22:05 159 4 gusting 9 26.1
2020-May-29 22:00 170 6 gusting 9 26.1
2020-May-29 21:55 245 6 gusting 6 26.1
2020-May-29 21:50 199 5 gusting 7 26.1
2020-May-29 21:45 190 6 gusting 11 26.1
2020-May-29 21:40 218 4 gusting 11 26.1
2020-May-29 21:35 218 6 gusting 8 26.1
2020-May-29 21:30 192 7 gusting 11 26.1
2020-May-29 21:25 208 5 gusting 13 26.1
2020-May-29 21:20 259 6 gusting 10 26.1
2020-May-29 21:15 185 7 gusting 13 26.1
2020-May-29 21:10 155 10 gusting 14 26.1
2020-May-29 21:05 172 5 gusting 16 26.7
2020-May-29 21:00 203 9 gusting 16 26.7
2020-May-29 20:55 192 5 gusting 13 26.7
2020-May-29 20:50 182 6 gusting 16 26.7
2020-May-29 20:45 206 6 gusting 15 27.2
2020-May-29 20:40 248 6 gusting 16 27.2
2020-May-29 20:35 086 5 gusting 15 27.2
2020-May-29 20:30 210 11 gusting 13 27.8
2020-May-29 20:25 216 6 gusting 12 27.2
2020-May-29 20:15 149 1 gusting 12 27.2
2020-May-29 20:10 165 10 gusting 12 27.8
2020-May-29 20:05 203 4 gusting 14 27.8
2020-May-29 20:00 199 8 gusting 14 27.8
2020-May-29 19:55 216 12 gusting 13 27.2
2020-May-29 19:50 188 6 gusting 13 27.8
2020-May-29 19:45 199 8 gusting 16 27.2
2020-May-29 19:40 169 7 gusting 16 26.7
2020-May-29 19:35 152 12 gusting 14 26.7
2020-May-29 19:30 119 6 gusting 12 26.7
2020-May-29 19:25 199 7 gusting 11 27.2
2020-May-29 19:20 188 8 gusting 13 27.2
2020-May-29 19:15 170 6 gusting 13 27.2
2020-May-29 19:10 175 4 gusting 13 27.2
2020-May-29 19:05 166 6 gusting 12 27.8
2020-May-29 19:00 209 6 gusting 13 27.2
2020-May-29 18:55 195 7 gusting 12 27.2
2020-May-29 18:50 220 5 gusting 13 26.7
2020-May-29 18:45 193 7 gusting 15 26.7
2020-May-29 18:40 183 6 gusting 12 26.7
2020-May-29 18:35 159 8 gusting 13 27.2
2020-May-29 18:30 163 5 gusting 15 27.2
2020-May-29 18:25 149 8 gusting 15 27.2
2020-May-29 18:20 185 7 gusting 16 27.2
2020-May-29 18:15 188 12 gusting 14 26.7
2020-May-29 18:10 212 6 gusting 17 26.7
2020-May-29 18:05 182 11 gusting 15 26.7
2020-May-29 18:00 160 7 gusting 15 26.7
2020-May-29 17:55 219 4 gusting 15 26.7
2020-May-29 17:50 153 13 gusting 13 27.2
2020-May-29 17:45 188 6 gusting 14 27.2
2020-May-29 17:40 156 10 gusting 15 28.3
2020-May-29 17:35 202 5 gusting 12 28.3
2020-May-29 17:30 238 10 gusting 13 28.3
2020-May-29 17:25 242 9 gusting 15 28.3
2020-May-29 17:20 236 9 gusting 13 28.3
2020-May-29 17:15 210 1 gusting 17 28.3
2020-May-29 17:10 271 10 gusting 17 27.2
2020-May-29 17:05 152 6 gusting 16 27.2
2020-May-29 17:00 262 6 gusting 15 27.8
2020-May-29 16:55 135 4 gusting 10 28.3
2020-May-29 16:50 203 6 gusting 14 27.8
2020-May-29 16:45 213 10 gusting 13 27.2
2020-May-29 16:40 210 10 gusting 13 27.2
2020-May-29 16:35 190 6 gusting 16 26.7
2020-May-29 16:30 169 7 gusting 12 26.7
2020-May-29 16:25 162 5 gusting 12 26.7
2020-May-29 16:20 185 6 gusting 13 26.7
2020-May-29 16:15 202 6 gusting 13 26.1
2020-May-29 16:10 179 6 gusting 12 26.1
2020-May-29 16:05 200 7 gusting 9 25.6
2020-May-29 16:00 209 5 gusting 8 25.6
2020-May-29 15:55 226 4 gusting 11 25.6
2020-May-29 15:50 222 5 gusting 10 25.6
2020-May-29 15:45 179 1 gusting 11 25.6
2020-May-29 15:40 242 8 gusting 11 25.6
2020-May-29 15:35 152 7 gusting 12 25.6
2020-May-29 15:30 226 4 gusting 7 26.1
2020-May-29 15:25 218 5 gusting 11 25.6
2020-May-29 15:20 212 4 gusting 9 25.6
2020-May-29 15:15 198 25.0
2020-May-29 15:10 193 5 gusting 9 25.0
2020-May-29 15:05 185 2 gusting 6 25.0
2020-May-29 15:00 248 4 gusting 6 25.0
2020-May-29 14:55 259 4 gusting 8 25.0
2020-May-29 14:50 190 6 gusting 12 25.0
2020-May-29 14:45 175 6 gusting 9 25.6
2020-May-29 14:40 235 4 gusting 9 25.6
2020-May-29 14:35 180 4 gusting 13 25.6
2020-May-29 14:30 212 7 gusting 12 25.6
2020-May-29 14:25 189 8 gusting 13 25.0
2020-May-29 14:20 230 11 gusting 13 25.0
2020-May-29 14:15 240 6 gusting 10 25.6
2020-May-29 14:10 228 7 gusting 10 25.6
2020-May-29 14:05 255 7 gusting 9 25.6
2020-May-29 14:00 256 6 gusting 11 25.6
2020-May-29 13:55 223 9 gusting 9 25.6
2020-May-29 13:50 222 7 gusting 12 25.6
2020-May-29 13:45 233 5 gusting 9 25.6
2020-May-29 13:40 230 7 gusting 13 26.1
2020-May-29 13:35 180 8 gusting 13 26.1
2020-May-29 13:30 159 8 gusting 12 25.6
2020-May-29 13:25 198 9 gusting 12 25.0
2020-May-29 13:20 159 8 gusting 10 25.6
2020-May-29 13:15 199 2 gusting 11 24.4
2020-May-29 13:10 192 8 gusting 10 25.0
2020-May-29 13:05 228 5 gusting 9 24.4
2020-May-29 13:00 172 4 gusting 12 23.9
2020-May-29 12:55 235 6 gusting 10 23.9
2020-May-29 12:50 165 1 gusting 8 23.9
2020-May-29 12:45 195 4 gusting 10 23.9
2020-May-29 12:40 212 4 gusting 11 23.3
2020-May-29 12:35 200 23.3
2020-May-29 12:30 173 4 gusting 10 23.3
2020-May-29 12:25 179 6 gusting 10 23.3
2020-May-29 12:20 209 5 gusting 11 23.3
2020-May-29 12:15 256 4 gusting 8 23.3
2020-May-29 12:10 202 8 gusting 12 23.3
2020-May-29 12:05 210 6 gusting 9 22.8
2020-May-29 12:00 173 7 gusting 12 22.2
2020-May-29 11:55 176 5 gusting 12 22.2
2020-May-29 11:50 183 8 gusting 9 21.7
2020-May-29 11:45 199 4 gusting 7 21.7
2020-May-29 11:40 259 5 gusting 7 21.7
2020-May-29 11:35 189 21.7
2020-May-29 11:30 203 4 gusting 6 21.7
2020-May-29 11:25 159 4 gusting 6 21.7
2020-May-29 11:20 166 21.7
2020-May-29 11:15 219 4 gusting 4 21.7
2020-May-29 11:10 150 21.7
2020-May-29 11:05 176 4 gusting 5 21.7
2020-May-29 11:00 132 21.7
2020-May-29 10:55 189 5 gusting 7 21.7
2020-May-29 10:50 173 21.7
2020-May-29 10:45 209 21.7
2020-May-29 10:40 125 21.7
2020-May-29 10:35 215 2 gusting 5 21.7
2020-May-29 10:30 183 21.7
2020-May-29 10:25 208 1 gusting 6 21.7
2020-May-29 10:20 212 21.7
2020-May-29 10:15 199 6 gusting 6 21.7
2020-May-29 10:10 175 3 gusting 4 21.7
2020-May-29 10:05 215 21.7
2020-May-29 10:00 215 4 gusting 7 21.7
2020-May-29 09:55 223 21.7
2020-May-29 09:50 190 21.1
2020-May-29 09:45 198 21.1
2020-May-29 09:40 232 4 gusting 8 21.1
2020-May-29 09:35 213 21.1
2020-May-29 09:30 189 6 gusting 11 21.1
2020-May-29 09:25 172 21.1
2020-May-29 09:20 186 21.1
2020-May-29 09:15 205 8 gusting 9 21.1
2020-May-29 09:10 209 4 gusting 10 21.1
2020-May-29 09:05 228 5 gusting 11 21.1
2020-May-29 09:00 238 6 gusting 7 21.1
2020-May-29 08:55 146 21.1
2020-May-29 08:50 226 6 gusting 10 21.1
2020-May-29 08:45 195 1 gusting 13 21.1
2020-May-29 08:40 163 21.1
2020-May-29 08:35 223 7 gusting 10 20.6
2020-May-29 08:30 220 5 gusting 6 20.6
2020-May-29 08:25 162 1 gusting 6 20.6
2020-May-29 08:20 193 20.0
2020-May-29 08:15 169 3 gusting 5 20.0
2020-May-29 08:10 140 1 gusting 4 19.4
2020-May-29 08:05 140 19.4
2020-May-29 08:00 149 19.4
2020-May-29 07:55 149 19.4
2020-May-29 07:50 149 19.4
2020-May-29 07:45 149 18.9
2020-May-29 07:40 149 18.9
2020-May-29 07:35 149 18.9
2020-May-29 07:30 160 1 gusting 4 18.9
2020-May-29 07:25 150 18.9
2020-May-29 07:20 163 1 gusting 5 18.9
2020-May-29 07:15 165 2 gusting 4 18.9
2020-May-29 07:10 186 2 gusting 6 18.9
2020-May-29 07:05 218 4 gusting 5 18.9
2020-May-29 07:00 193 1 gusting 6 18.9
2020-May-29 06:55 183 4 gusting 6 18.9
2020-May-29 06:50 110 19.4
2020-May-29 06:45 137 1 gusting 5 19.4
2020-May-29 06:40 153 4 gusting 5 19.4
2020-May-29 06:35 139 2 gusting 5 19.4
2020-May-29 06:30 149 19.4
2020-May-29 06:25 143 19.4
2020-May-29 06:20 136 18.9
2020-May-29 06:15 160 4 gusting 6 18.9
2020-May-29 06:10 169 2 gusting 4 18.9
2020-May-29 06:05 180 4 gusting 4 18.9
2020-May-29 06:00 150 18.9
2020-May-29 05:55 152 18.9
2020-May-29 05:50 160 18.9
2020-May-29 05:45 167 18.9
2020-May-29 05:40 143 18.9
2020-May-29 05:35 205 18.9
2020-May-29 05:30 169 2 gusting 6 18.9
2020-May-29 05:25 185 18.9
2020-May-29 05:20 157 3 gusting 7 18.9
2020-May-29 05:15 159 1 gusting 7 18.9
2020-May-29 05:10 190 18.9
2020-May-29 05:00 173 3 gusting 6 18.3
2020-May-29 04:55 166 6 gusting 5 18.3
2020-May-29 04:50 190 1 gusting 7 18.3
2020-May-29 04:45 160 5 gusting 7 18.3
2020-May-29 04:40 185 6 gusting 6 18.3
2020-May-29 04:35 212 18.3
2020-May-29 04:30 182 18.3
2020-May-29 04:25 179 18.3
2020-May-29 04:20 179 18.3
2020-May-29 04:15 185 18.3
2020-May-29 04:10 185 2 gusting 8 18.3
2020-May-29 04:05 200 6 gusting 6 18.3
2020-May-29 04:00 165 4 gusting 6 18.3
2020-May-29 03:55 179 18.3
2020-May-29 03:50 199 18.3
2020-May-29 03:45 185 4 gusting 9 18.3
2020-May-29 03:40 163 4 gusting 9 18.9
2020-May-29 03:35 162 5 gusting 7 18.9
2020-May-29 03:30 186 1 gusting 8 18.9
2020-May-29 03:25 186 4 gusting 9 18.9
2020-May-29 03:20 175 6 gusting 7 18.9
2020-May-29 03:15 149 18.9
2020-May-29 03:10 186 5 gusting 11 18.9
2020-May-29 03:05 203 4 gusting 10 18.9
2020-May-29 03:00 132 2 gusting 10 18.9
2020-May-29 02:55 166 6 gusting 11 18.9
2020-May-29 02:50 172 5 gusting 9 18.9
2020-May-29 02:45 156 4 gusting 9 18.9
2020-May-29 02:40 186 18.9
2020-May-29 02:35 202 4 gusting 7 18.9
2020-May-29 02:30 182 6 gusting 7 18.9
2020-May-29 02:25 183 5 gusting 6 18.9
2020-May-29 02:20 190 6 gusting 6 18.9
2020-May-29 02:15 190 1 gusting 8 18.9
2020-May-29 02:10 212 6 gusting 10 18.9
2020-May-29 02:05 180 7 gusting 10 18.9
2020-May-29 02:00 159 1 gusting 9 18.9
2020-May-29 01:55 196 1 gusting 10 18.9
2020-May-29 01:50 123 18.9
2020-May-29 01:45 195 6 gusting 8 18.9
2020-May-29 01:40 150 5 gusting 8 18.9
2020-May-29 01:35 136 5 gusting 6 18.9
2020-May-29 01:30 133 3 gusting 6 18.9
2020-May-29 01:25 133 3 gusting 10 18.9
2020-May-29 01:20 156 6 gusting 7 19.4
2020-May-29 01:15 156 6 gusting 6 19.4
2020-May-29 01:10 213 6 gusting 8 19.4
2020-May-29 01:05 140 1 gusting 6 19.4
2020-May-29 01:00 173 1 gusting 8 19.4
2020-May-29 00:55 160 4 gusting 9 20.0
2020-May-29 00:50 179 4 gusting 7 20.0
2020-May-29 00:45 165 4 gusting 6 20.0
2020-May-29 00:40 182 1 gusting 8 20.0
2020-May-29 00:35 120 20.0
2020-May-29 00:30 182 4 gusting 7 20.0
2020-May-29 00:25 198 4 gusting 9 20.6
2020-May-29 00:20 190 4 gusting 8 20.0
2020-May-29 00:15 162 1 gusting 8 20.6
2020-May-29 00:10 146 7 gusting 9 20.6
2020-May-29 00:05 150 7 gusting 10 20.6
2020-May-29 00:00 176 4 gusting 9 20.6